Location: Cabo di Oristano
(39.8500°N, 8.4333°E)
Time: 17:37:22
(UTC+00:00)

SL-16 R/B - Pass Details

Date: 31 January 2023
Orbit: 842 x 845 km, 71.0° (Epoch: 01 April)

Event Time Altitude Azimuth Distance (km) Brightness Sun altitude
Exits shadow 04:30:26 41° 216° (SW) 1,207 2.7 -24.2°
Drops below altitude 10° 04:34:34 10° 180° (S) 2,457 4.6 -23.4°
Sets 04:37:04 0° 175° (S) 3,388 5.5 -22.9°
